Home   Weather   Washington Junction   Past weeks
Flag for USA

Past Weather in Washington Junction, Maryland, USA — Yesterday and Last 2 Weeks

Now
58 °F

Overcast.


Feels Like: 58 °F
Forecast: 58 / 47 °F
Wind: No wind

Location: Reagan National Airport

Current Time: Apr 4, 2020 at 4:35:37 pm

Latest Report: Apr 4, 2020 at 3:52 pm


Visibility: 10 mi

Pressure: 30.01 "Hg

Humidity: 60%

Dew Point: 44 °F

Location of Washington JunctionLocation

Past Weather in Washington Junction — Graph

°F

Washington Junction Temperature Yesterday

Maximum temperature yesterday: 67 °F (at 4:52 pm)
Minimum temperature yesterday: 48 °F (at 6:52 am)
Average temperature yesterday: 57 °F

High & Low Weather Summary for the Past Weeks

 TemperatureHumidityPressure
High82 °F (Mar 20, 4:52 pm)100% (Mar 30, 12:36 am)30.60 "Hg (Mar 30, 12:36 am)
Low40 °F (Mar 22, 7:52 am)21% (Mar 30, 3:52 pm)29.75 "Hg (Mar 29, 6:52 pm)
Average53 °F70%30.02 "Hg
* Reported Mar 20 1:52 pm — Apr 4 1:52 pm, Washington Junction. Weather by CustomWeather, © 2020

Note: Actual official high and low records may vary slightly from our data, if they occured in-between our weather recording intervals... More about our weather records

Washington Junction Weather History for the Previous 24 Hours

Scroll right to see more
 ConditionsComfort  
Time TempWeatherWind HumidityBarometerVisibility
1:52 pm
Sat, Apr 4
58 °FOvercast.8 mph60%30.02 "Hg10 mi
12:52 pm58 °FOvercast.8 mph58%30.02 "Hg10 mi
11:52 am58 °FMostly cloudy.5 mph60%30.04 "Hg10 mi
10:52 am56 °FOvercast.8 mph65%30.04 "Hg10 mi
9:52 am53 °FOvercast.9 mph69%30.03 "Hg10 mi
8:52 am52 °FOvercast.10 mph72%30.01 "Hg10 mi
7:52 am51 °FOvercast.10 mph69%29.99 "Hg10 mi
6:52 am51 °FOvercast.13 mph63%29.98 "Hg10 mi
5:52 am51 °FOvercast.13 mph61%29.96 "Hg10 mi
4:52 am50 °FOvercast.10 mph63%29.95 "Hg10 mi
3:52 am51 °FOvercast.9 mph63%29.94 "Hg10 mi
2:52 am52 °FOvercast.13 mph61%29.94 "Hg10 mi
1:52 am51 °FPassing clouds.13 mph61%29.94 "Hg10 mi
12:52 am53 °FOvercast.13 mph56%29.93 "Hg10 mi
11:52 pm
Fri, Apr 3
54 °FOvercast.15 mph55%29.93 "Hg10 mi
10:52 pm54 °FPassing clouds.15 mph57%29.93 "Hg10 mi
9:52 pm56 °FOvercast.20 mph53%29.91 "Hg10 mi
8:52 pm58 °FOvercast.17 mph50%29.88 "Hg10 mi
7:52 pm60 °FPassing clouds.15 mph42%29.85 "Hg10 mi
7:16 pm62 °FPartly sunny.14 mph39%29.82 "Hg10 mi
6:52 pm64 °FPartly sunny.17 mph34%29.81 "Hg10 mi
5:52 pm66 °FBroken clouds.23 mph33%29.79 "Hg10 mi
4:52 pm67 °FBroken clouds.18 mph31%29.78 "Hg10 mi
Weather by CustomWeather, © 2020

See weather overview

Advertising